Precipitable_Water
0.43 0.39 0.36 0.34 0.31 0.27 0.21 0.16 0.11 0.22 0.22 0.12 0.16 0.15 0.19 0.24 0.24 0.28 0.26 0.28 0.26 0.24 0.26 0.24 0.27 0.30 0.34 0.44 0.48 0.44 0.53 0.45 0.35 0.37 0.47 0.44 0.33 0.28 0.26 0.19 0.17 0.19 0.17 0.14
0.45 0.42 0.38 0.34 0.32 0.29 0.22 0.15 0.16 0.24 0.20 0.10 0.13 0.17 0.17 0.21 0.20 0.23 0.24 0.24 0.28 0.29 0.26 0.24 0.28 0.31 0.39 0.44 0.46 0.45 0.51 0.41 0.31 0.36 0.44 0.45 0.34 0.31 0.28 0.25 0.24 0.19 0.16 0.15
0.46 0.43 0.39 0.34 0.32 0.31 0.24 0.18 0.11 0.18 0.20 0.20 0.14 0.13 0.13 0.14 0.22 0.22 0.24 0.24 0.25 0.26 0.23 0.28 0.27 0.29 0.37 0.42 0.47 0.53 0.55 0.45 0.35 0.26 0.30 0.37 0.33 0.33 0.31 0.25 0.20 0.19 0.19 0.19
0.48 0.45 0.41 0.35 0.32 0.30 0.24 0.21 0.17 0.19 0.12 0.15 0.15 0.15 0.14 0.12 0.14 0.19 0.22 0.20 0.21 0.22 0.21 0.22 0.25 0.31 0.33 0.40 0.46 0.49 0.47 0.36 0.38 0.39 0.40 0.40 0.38 0.37 0.35 0.28 0.25 0.20 0.23 0.23
0.51 0.48 0.45 0.39 0.33 0.30 0.25 0.18 0.18 0.20 0.17 0.17 0.14 0.15 0.13 0.13 0.15 0.15 0.15 0.17 0.19 0.22 0.20 0.23 0.22 0.29 0.33 0.35 0.41 0.42 0.46 0.37 0.38 0.33 0.37 0.37 0.36 0.40 0.40 0.40 0.36 0.31 0.29 0.27
0.55 0.50 0.48 0.44 0.37 0.32 0.26 0.28 0.29 0.21 0.16 0.15 0.14 0.15 0.16 0.14 0.16 0.15 0.17 0.17 0.17 0.18 0.22 0.25 0.28 0.31 0.36 0.37 0.36 0.36 0.37 0.36 0.34 0.27 0.35 0.34 0.30 0.38 0.41 0.42 0.45 0.43 0.35 0.39
0.59 0.52 0.51 0.49 0.42 0.37 0.31 0.30 0.27 0.19 0.13 0.15 0.14 0.16 0.17 0.15 0.15 0.13 0.14 0.15 0.15 0.22 0.28 0.32 0.33 0.31 0.32 0.36 0.35 0.39 0.35 0.36 0.36 0.30 0.33 0.22 0.34 0.40 0.42 0.42 0.42 0.44 0.44 0.45
0.62 0.56 0.51 0.51 0.47 0.41 0.34 0.33 0.27 0.20 0.14 0.16 0.15 0.16 0.15 0.15 0.16 0.13 0.10 0.11 0.16 0.24 0.26 0.24 0.21 0.23 0.25 0.29 0.35 0.35 0.39 0.36 0.31 0.29 0.29 0.35 0.35 0.36 0.35 0.35 0.35 0.41 0.42 0.45
0.63 0.61 0.53 0.52 0.51 0.45 0.39 0.35 0.35 0.25 0.17 0.15 0.19 0.16 0.17 0.13 0.12 0.11 0.08 0.11 0.15 0.23 0.21 0.21 0.16 0.15 0.20 0.20 0.26 0.35 0.36 0.37 0.31 0.30 0.25 0.23 0.30 0.36 0.40 0.38 0.30 0.38 0.40 0.41
0.62 0.62 0.55 0.53 0.53 0.49 0.41 0.37 0.36 0.26 0.18 0.22 0.22 0.17 0.17 0.20 0.16 0.12 0.10 0.08 0.09 0.19 0.16 0.16 0.16 0.16 0.24 0.19 0.19 0.21 0.25 0.27 0.25 0.26 0.25 0.28 0.34 0.39 0.42 0.28 0.27 0.34 0.36 0.37
0.60 0.61 0.57 0.54 0.54 0.52 0.43 0.37 0.38 0.27 0.20 0.22 0.27 0.26 0.21 0.20 0.16 0.12 0.12 0.06 0.07 0.13 0.11 0.14 0.16 0.17 0.19 0.20 0.22 0.22 0.21 0.22 0.23 0.25 0.24 0.22 0.35 0.35 0.31 0.33 0.35 0.36 0.37 0.38
0.57 0.62 0.60 0.54 0.56 0.54 0.46 0.35 0.39 0.34 0.25 0.24 0.33 0.32 0.35 0.26 0.22 0.16 0.13 0.09 0.09 0.16 0.13 0.13 0.15 0.15 0.18 0.18 0.15 0.22 0.20 0.23 0.22 0.23 0.24 0.31 0.32 0.30 0.35 0.35 0.35 0.37 0.37 0.38
0.58 0.60 0.63 0.55 0.56 0.52 0.46 0.39 0.38 0.30 0.23 0.24 0.26 0.25 0.31 0.29 0.22 0.19 0.11 0.11 0.14 0.17 0.20 0.17 0.15 0.11 0.15 0.13 0.15 0.16 0.19 0.21 0.19 0.20 0.25 0.24 0.26 0.31 0.30 0.28 0.30 0.32 0.34 0.36
0.58 0.58 0.61 0.58 0.57 0.52 0.47 0.40 0.38 0.32 0.27 0.18 0.21 0.33 0.30 0.30 0.22 0.16 0.19 0.18 0.21 0.22 0.23 0.19 0.16 0.13 0.16 0.11 0.12 0.12 0.15 0.16 0.16 0.16 0.19 0.21 0.27 0.26 0.25 0.26 0.27 0.28 0.30 0.31
0.61 0.61 0.60 0.57 0.56 0.53 0.47 0.45 0.44 0.38 0.27 0.16 0.18 0.26 0.29 0.26 0.18 0.15 0.21 0.21 0.21 0.22 0.19 0.17 0.15 0.17 0.15 0.14 0.13 0.10 0.12 0.11 0.09 0.10 0.14 0.15 0.17 0.20 0.22 0.22 0.23 0.25 0.26 0.28
0.61 0.61 0.60 0.56 0.59 0.54 0.43 0.33 0.44 0.42 0.36 0.21 0.16 0.26 0.22 0.20 0.16 0.18 0.20 0.24 0.25 0.24 0.20 0.17 0.18 0.19 0.17 0.12 0.10 0.12 0.13 0.12 0.11 0.09 0.11 0.11 0.12 0.13 0.16 0.17 0.19 0.21 0.24 0.25
0.60 0.60 0.60 0.54 0.57 0.48 0.36 0.30 0.37 0.41 0.40 0.21 0.15 0.14 0.16 0.17 0.17 0.18 0.20 0.24 0.25 0.24 0.20 0.17 0.16 0.16 0.15 0.12 0.09 0.12 0.11 0.11 0.11 0.11 0.11 0.09 0.10 0.09 0.11 0.11 0.13 0.16 0.18 0.22
0.62 0.60 0.57 0.58 0.57 0.52 0.39 0.40 0.42 0.39 0.26 0.19 0.15 0.15 0.17 0.19 0.19 0.18 0.20 0.19 0.23 0.22 0.19 0.17 0.14 0.14 0.13 0.09 0.12 0.11 0.11 0.11 0.11 0.11 0.11 0.11 0.11 0.11 0.11 0.12 0.11 0.11 0.11 0.14
0.64 0.60 0.58 0.53 0.46 0.34 0.33 0.42 0.42 0.32 0.24 0.17 0.17 0.16 0.16 0.20 0.21 0.22 0.21 0.22 0.18 0.22 0.17 0.15 0.14 0.12 0.08 0.10 0.11 0.11 0.11 0.10 0.09 0.10 0.10 0.10 0.10 0.10 0.11 0.11 0.11 0.11 0.11 0.12
0.60 0.52 0.42 0.38 0.35 0.43 0.42 0.34 0.24 0.22 0.21 0.21 0.18 0.20 0.17 0.20 0.22 0.20 0.19 0.19 0.17 0.14 0.16 0.17 0.12 0.11 0.12 0.12 0.12 0.12 0.11 0.11 0.10 0.08 0.08 0.09 0.09 0.10 0.10 0.11 0.12 0.12 0.12 0.13
0.53 0.48 0.45 0.46 0.48 0.41 0.32 0.22 0.19 0.19 0.19 0.21 0.21 0.20 0.17 0.23 0.21 0.19 0.20 0.17 0.17 0.13 0.14 0.13 0.11 0.11 0.11 0.13 0.12 0.13 0.12 0.11 0.11 0.11 0.11 0.11 0.11 0.11 0.11 0.11 0.12 0.13 0.13 0.13
0.54 0.55 0.56 0.46 0.33 0.25 0.19 0.18 0.19 0.22 0.21 0.23 0.22 0.21 0.22 0.23 0.23 0.18 0.18 0.15 0.15 0.11 0.16 0.13 0.10 0.12 0.12 0.13 0.13 0.13 0.12 0.12 0.12 0.12 0.12 0.12 0.13 0.13 0.13 0.13 0.13 0.14 0.15 0.15
0.57 0.48 0.37 0.30 0.26 0.20 0.18 0.20 0.21 0.24 0.28 0.27 0.27 0.24 0.24 0.23 0.21 0.18 0.17 0.14 0.12 0.15 0.13 0.11 0.11 0.12 0.13 0.14 0.14 0.13 0.13 0.12 0.12 0.12 0.12 0.13 0.13 0.14 0.14 0.14 0.14 0.15 0.15 0.16
0.43 0.36 0.30 0.28 0.23 0.22 0.22 0.22 0.25 0.27 0.28 0.28 0.28 0.27 0.25 0.22 0.20 0.19 0.15 0.15 0.14 0.11 0.10 0.10 0.12 0.12 0.15 0.15 0.16 0.14 0.13 0.13 0.12 0.12 0.12 0.13 0.13 0.13 0.14 0.14 0.15 0.15 0.15 0.17
0.38 0.35 0.27 0.28 0.28 0.27 0.26 0.26 0.25 0.26 0.27 0.26 0.28 0.28 0.25 0.21 0.19 0.18 0.16 0.13 0.11 0.11 0.10 0.11 0.14 0.15 0.16 0.16 0.16 0.15 0.14 0.13 0.13 0.13 0.13 0.13 0.13 0.13 0.14 0.15 0.15 0.16 0.17 0.17
0.40 0.36 0.31 0.30 0.28 0.27 0.28 0.28 0.27 0.28 0.27 0.31 0.30 0.24 0.21 0.18 0.17 0.15 0.13 0.12 0.11 0.12 0.14 0.16 0.16 0.16 0.16 0.16 0.16 0.16 0.16 0.15 0.14 0.14 0.13 0.13 0.13 0.14 0.14 0.15 0.15 0.16 0.17 0.17
0.35 0.31 0.34 0.32 0.30 0.29 0.31 0.32 0.31 0.31 0.29 0.26 0.25 0.21 0.20 0.19 0.15 0.14 0.15 0.14 0.15 0.16 0.18 0.19 0.19 0.18 0.16 0.16 0.16 0.17 0.16 0.15 0.14 0.14 0.14 0.14 0.14 0.14 0.14 0.13 0.15 0.16 0.17 0.17
Wind_Speed
44 45 46 47 46 41 34 32 30 36 31 27 27 26 24 24 24 21 15 13 8 3 6 14 17 18 19 14 15 19 22 20 25 35 25 33 37 39 37 31 30 24 21 21
44 44 45 46 45 40 32 30 30 35 31 27 27 26 25 22 25 24 18 15 12 6 5 11 14 18 19 16 17 16 16 25 23 22 24 29 38 39 41 37 28 33 26 21
43 44 44 44 44 40 32 29 27 29 32 30 28 26 27 25 22 21 20 16 12 9 2 7 13 15 17 17 16 17 19 19 24 26 31 28 38 41 39 40 36 34 34 30
43 43 43 43 43 40 31 29 28 27 28 29 29 26 26 27 23 21 22 17 17 10 2 4 10 13 15 17 14 17 18 20 19 19 21 27 28 37 38 39 40 38 33 33
42 42 42 42 41 36 33 28 26 26 27 27 27 28 26 26 23 20 20 20 19 10 3 3 10 11 14 16 17 16 17 19 20 21 19 26 29 28 33 37 37 37 35 36
42 41 40 40 40 36 31 30 26 24 27 25 24 26 26 24 25 20 19 20 19 13 8 9 12 17 18 19 19 17 15 19 21 23 20 19 23 25 31 29 24 30 37 30
41 41 39 39 38 35 31 29 26 23 24 24 24 25 25 25 23 20 21 21 17 15 17 9 6 10 13 15 17 21 19 16 20 21 21 23 20 19 20 23 20 22 27 30
41 41 39 37 36 33 30 29 27 23 21 23 23 25 25 24 23 20 19 23 18 20 15 8 4 8 10 10 8 15 19 19 16 17 23 18 18 17 21 24 25 23 26 28
40 40 39 36 35 33 29 28 27 23 19 22 21 22 23 24 24 21 19 22 19 19 15 11 6 5 8 8 11 8 13 17 18 15 17 19 18 20 23 25 27 23 26 28
38 39 39 36 34 32 29 26 26 23 19 19 20 21 21 22 22 20 20 21 19 19 15 12 10 3 7 6 8 10 11 12 15 16 17 16 14 18 18 22 21 25 26 29
38 38 38 36 33 31 29 26 25 22 19 16 18 19 20 20 21 21 21 16 17 17 15 12 10 6 3 6 7 9 10 12 13 16 18 18 14 15 17 20 23 25 26 27
38 38 37 35 33 31 28 25 25 21 18 16 17 17 18 18 19 20 19 16 14 14 12 11 8 8 5 4 6 8 12 11 14 15 15 17 18 21 18 19 23 26 27 29
38 38 36 34 32 30 27 26 24 21 18 15 16 16 15 16 19 19 18 16 14 12 11 10 9 8 6 5 4 7 10 13 15 16 16 21 22 20 21 24 26 28 30 31
38 37 36 35 32 29 26 24 22 21 19 14 15 16 14 15 18 18 16 15 14 11 10 8 8 7 7 6 5 7 7 10 14 19 19 20 18 23 27 28 29 30 32 33
38 37 36 35 31 29 26 23 20 22 20 17 16 16 14 15 16 17 16 14 14 12 9 8 8 7 6 7 6 5 4 6 9 13 17 23 26 27 30 30 32 33 34 35
39 37 36 35 31 29 27 22 19 23 20 16 15 14 13 15 15 16 16 14 13 12 11 9 8 8 8 6 7 6 5 7 8 10 12 18 24 28 32 33 34 35 36 37
39 38 37 34 31 28 24 22 22 22 20 15 14 13 13 15 15 16 15 15 14 13 12 10 9 9 9 8 9 7 9 10 12 13 14 16 16 19 24 27 32 37 39 39
40 39 37 32 29 26 23 22 23 21 15 13 13 14 14 15 16 17 17 16 14 13 12 11 10 10 10 11 11 10 12 14 16 16 16 20 22 23 23 25 26 28 32 37
39 38 34 30 27 23 22 25 23 15 13 12 13 14 15 15 18 19 17 16 14 13 12 12 11 11 12 12 11 13 14 15 16 19 21 22 22 24 25 26 27 29 30 32
37 35 30 27 24 26 26 21 14 13 13 14 14 15 16 18 19 18 18 16 14 14 13 13 12 15 14 12 13 14 16 18 19 20 21 21 23 25 27 28 29 30 31 32
34 32 28 29 29 26 19 14 12 13 13 13 15 16 17 19 19 18 16 16 16 15 14 14 14 16 14 13 15 16 18 19 20 21 23 23 24 26 27 29 30 31 32 32
32 33 32 29 21 17 15 14 13 14 13 14 15 17 18 19 19 17 17 17 16 16 16 16 17 16 13 14 17 18 19 20 21 22 23 24 25 26 27 28 29 30 31 31
32 28 25 21 18 17 15 16 15 15 16 16 18 19 20 19 18 18 17 17 17 18 18 18 18 14 15 17 18 19 21 22 22 23 23 24 25 25 26 28 28 29 29 28
26 24 23 19 18 19 19 19 18 19 20 19 21 21 21 21 20 19 18 19 20 19 19 19 17 17 19 19 20 21 21 21 22 23 23 24 24 24 25 27 27 27 26 25
26 23 23 22 24 23 23 22 23 24 23 23 24 24 24 22 21 21 19 19 20 19 19 19 19 20 20 20 21 22 22 22 23 23 23 23 23 24 25 26 25 23 22 21
29 29 29 29 29 29 28 27 28 27 26 27 27 25 24 24 21 20 21 20 22 22 22 21 21 22 22 22 23 23 23 22 23 23 23 23 23 24 24 24 22 21 19 18
31 32 33 33 33 33 31 31 31 29 29 30 27 26 25 23 23 24 23 25 25 24 23 24 24 23 23 23 23 23 23 23 24 24 24 23 23 23 23 23 21 19 18 16
Wind_Direction
7 8 8 9 10 12 18 21 21 14 21 24 23 26 25 22 21 23 25 21 25 44 178 188 185 189 194 197 200 201 201 201 195 198 203 209 209 209 209 213 212 220 227 223
7 8 8 8 10 12 14 18 20 20 25 24 23 22 23 26 23 24 23 24 24 21 179 179 190 200 199 198 197 194 195 204 195 199 216 211 211 211 213 219 221 221 222 217
6 7 7 8 9 11 14 16 16 17 24 26 24 21 20 20 22 27 24 24 28 22 129 183 195 198 196 208 203 206 207 204 209 208 210 209 211 214 216 218 222 224 226 228
5 6 7 7 8 11 13 14 17 18 17 21 22 24 19 19 21 21 22 24 17 16 27 220 207 206 216 207 211 211 210 212 211 213 213 212 215 216 217 222 226 228 227 230
4 4 6 7 8 10 15 13 14 17 18 18 20 21 19 17 18 17 16 17 8 2 347 256 225 222 211 209 217 217 223 216 213 216 221 219 218 217 221 225 228 233 235 239
2 3 4 6 7 10 11 12 13 13 13 15 17 17 14 14 14 15 12 7 5 5 336 299 254 232 228 229 226 224 225 225 222 222 221 215 226 229 228 225 230 237 235 237
1 1 2 3 5 8 10 10 9 9 12 14 15 13 12 9 9 11 8 8 8 4 346 304 223 210 212 218 220 221 224 227 224 219 219 225 226 234 235 215 230 241 243 245
359 359 359 360 2 4 5 6 7 7 9 9 12 11 12 9 9 11 11 10 4 357 2 11 215 202 202 202 205 216 220 224 228 228 222 218 232 239 238 234 233 246 249 252
355 356 356 356 358 359 359 2 3 4 4 7 7 9 9 10 8 8 9 7 9 11 19 27 33 206 224 228 218 215 217 220 220 226 227 225 236 255 244 235 234 253 254 255
350 351 352 353 354 355 355 356 358 360 360 1 2 7 7 7 8 6 7 8 12 15 21 32 32 32 234 226 227 238 232 228 226 230 230 223 247 260 235 229 241 257 258 257
346 347 348 348 350 350 350 350 352 352 353 353 358 360 3 5 8 8 2 8 14 16 25 24 25 21 9 236 232 240 234 237 232 232 233 229 267 246 243 246 254 260 260 259
342 343 343 344 345 346 346 346 346 346 347 347 352 353 356 360 4 3 5 7 7 12 17 19 14 19 3 338 246 246 237 241 242 242 242 253 259 254 248 259 262 263 265 265
336 337 339 339 340 342 342 343 344 344 341 339 344 346 348 354 357 358 359 360 360 1 5 8 12 13 353 348 310 277 250 248 249 259 248 264 266 242 259 273 270 269 268 268
333 334 334 335 334 337 337 337 341 342 338 332 336 338 340 344 348 351 350 351 352 352 350 349 356 359 358 352 337 301 285 274 263 259 261 270 252 259 276 276 273 272 271 269
329 329 330 332 330 331 332 330 331 338 335 324 326 329 331 337 341 346 347 346 346 346 343 336 334 341 342 346 337 325 312 301 286 277 269 266 269 273 277 277 277 275 273 273
326 327 326 326 325 325 326 324 321 328 329 322 323 325 326 332 334 340 342 341 339 336 337 331 327 322 319 315 316 320 310 308 305 307 303 293 285 280 276 277 277 276 273 271
322 323 323 321 320 321 320 319 319 321 322 318 316 319 321 325 328 330 330 332 329 328 327 324 315 310 311 307 305 297 288 297 302 302 309 306 302 304 301 293 282 276 274 272
319 320 320 317 318 319 316 316 316 316 314 313 313 315 316 322 325 324 324 322 322 323 317 314 307 306 302 298 298 302 302 303 303 299 299 301 305 306 305 304 301 297 287 277
318 320 317 314 315 315 315 315 313 308 303 309 310 313 315 318 321 320 317 316 314 315 310 309 302 298 293 295 299 297 298 302 304 302 303 303 303 306 307 308 307 304 301 294
314 318 318 314 313 313 313 313 307 309 308 307 307 312 312 317 319 317 315 313 310 308 309 307 298 295 287 286 298 302 303 302 305 306 306 306 306 308 309 309 310 307 305 301
311 313 312 311 310 309 309 303 304 308 308 308 311 311 313 318 317 315 313 309 307 303 305 300 301 302 282 282 293 300 302 303 303 302 303 303 304 308 310 311 311 311 310 306
304 307 308 310 310 309 303 296 297 300 304 310 313 312 312 314 314 313 313 308 306 299 303 301 299 295 279 289 295 299 302 303 303 304 303 304 304 306 308 311 313 315 313 311
302 304 307 308 306 301 295 290 290 294 297 301 307 312 311 310 311 310 308 306 300 304 298 295 295 287 284 293 297 300 302 304 305 305 305 306 306 308 310 313 314 315 315 316
296 296 299 297 297 293 293 291 291 295 299 297 303 306 303 304 304 303 301 302 301 299 296 293 295 281 289 293 295 300 301 302 303 305 306 308 309 309 313 315 315 316 317 320
287 288 293 289 292 293 296 291 290 294 293 296 302 301 297 297 296 295 298 298 295 292 295 297 292 292 290 291 293 295 299 301 304 306 306 308 308 309 312 317 316 317 318 321
281 281 287 292 293 289 287 287 290 287 287 294 297 294 294 290 289 289 283 291 288 293 292 292 294 293 290 290 291 293 297 299 303 304 306 306 307 309 311 316 316 316 317 320
280 285 286 287 290 288 287 286 288 284 285 290 289 285 283 289 287 285 283 287 290 289 290 291 291 289 288 289 291 291 294 297 301 303 304 305 305 306 308 312 312 312 313 314